Other Public Products
Issued by NWS Grand Forks, ND

Home | Current Version | Previous Version | Graphics & Text | Print | Product List | Glossary On
Versions: 1 2 3 4 5 6 7 8 9 10 11 12 13 14 15 16 17 18 19 20 21 22 23 24 25 26 27 28 29 30 31 32 33 34 35 36 37 38 39 40 41 42 43 44 45 46 47 48 49 50
000
FPUS83 KFGF 071110
OPUFGF
PRAIRIE TO PINES WEATHER ROUNDUP
NATIONAL WEATHER SERVICE EASTERN NORTH DAKOTA/GRAND FORKS ND
500 AM CST WED DEC 07 2016

 **SATELLITE DATA USED TO AUGMENT SKY COVER AT AUTOMATED STATIONS**
 *****  WEATHER ACROSS EASTERN NORTH DAKOTA  *****

CITY           SKY/WX    TMP DP  RH WIND       PRES   REMARKS
GRAND FORKS    LGT SNOW  15  10  80 W28G36    29.85R BLWGSNOWWCI  -5
GRAND FORKS AF LGT SNOW  14   9  79 NW22G31   29.86R WCI  -4
GRAND CITY NWS   N/A     14 N/A N/A NW15        N/A  WCI  -1
BUXTON         NOT AVBL
DEVILS LAKE    LGT SNOW   9   5  85 NW31      29.91R FOG     WCI -14
FARGO          FLURRIES  13   6  74 W25G33    29.92R WCI  -7
WAHPETON ARPT  CLOUDY    12   7  79 W24       29.96R WCI  -8
$$

 *****  WEATHER ACROSS CENTRAL AND WESTERN NORTH DAKOTA  *****

CITY           SKY/WX    TMP DP  RH WIND       PRES   REMARKS
JAMESTOWN      PTCLDY     7   3  84 NW29G38   29.97R BLWGSNOWWCI -16
BISMARCK       CLOUDY     6   0  76 W24G32    30.14R WCI -16
MINOT          LGT SNOW   6   1  80 W35G43    30.06R WCI -19
MINOT AFB      SNOW       4   0  82 W39G48    30.04S VSB 1/2 WCI -22
GARRISON         N/A      4   0  83 NW35G46   30.10R WCI -22
WILLISTON      MOCLDY     1  -7  68 NW16G24   30.28R WCI -19
DICKINSON      CLOUDY     1  -4  79 W30G36    30.14S HAZE    WCI -24
HETTINGER      CLOUDY     1  -5  75 W24       30.18S WCI -22
$$

 *****  OTHER OBSERVATIONS NORTHEAST NORTH DAKOTA  *****

CITY           SKY/WX    TMP DP  RH WIND       PRES   REMARKS
WALHALLA       LGT SNOW  14  14 100 NW24G41   29.83R WCI  -5
LANGDON        SNOW      10   9  92 NW35G44   29.82R VSB 1/2 WCI -13
CAVALIER         N/A     16  10  79 NW26G41   29.81R HAZE    WCI  -3
GRAFTON        FAIR      16  12  86 W25G36    29.84R WCI  -3
CANDO          CLOUDY    10   5  79 NW24G31   29.94R WCI -10
FORT TOTTEN      N/A     10   8  92 NW14      29.95S WCI  -6
ROLLA          LGT SNOW   9   7  92 NW36      29.89R VSB 1   WCI -16
RUGBY            N/A      7   5  92 NW31G37   29.98R FOG     WCI -17
 ***** THE ABOVE OBSERVATIONS ARE NON NWS ARE NOT QUALITY
        CONTROLLED AND MAY MIS-REPORT RAIN FOR SNOW...
$$

 *****  OTHER OBSERVATIONS SOUTHEAST NORTH DAKOTA *****

CITY           SKY/WX    TMP DP  RH WIND       PRES   REMARKS
COOPERSTOWN    CLOUDY     9   5  85 W28G36    29.91R FOG     WCI -13
VALLEY CITY    LGT SNOW   9   7  92 NW33G40   29.95R WCI -15
OAKES          NOT AVBL
GWINNER        CLOUDY    12   9  85 W18G24    30.01R WCI  -5
SHEYENNE NWR     N/A     11   3  71 NW15      29.95S WCI  -5
BUFFALO        NOT AVBL
WYNDMERE       NOT AVBL
 ***** THE ABOVE OBSERVATIONS ARE NON NWS ARE NOT QUALITY
       CONTROLLED AND MAY MIS-REPORT RAIN FOR SNOW...
$$

  *****  WEATHER ACROSS NORTHERN MINNESOTA  *****

CITY           SKY/WX    TMP DP  RH WIND       PRES   REMARKS
FLAG ISLAND    CLOUDY    25  21  86 NW21      29.56R WCI  10
WARROAD        CLOUDY    21  18  86 W12G20    29.60R WCI   9
ROSEAU         LGT SNOW  21  18  86 W18G30    29.63R WCI   6
HALLOCK        LGT SNOW  18  16  93 NW28G35   29.75R WCI  -1
THF RVR FALLS  LGT SNOW  15  12  88 W23G33    29.76R FOG     WCI  -3
HALSTAD          N/A     14  10  85 NW23        N/A  WCI  -4
FOSSTON        LGT SNOW  12  10  92 W23G32    29.77R WCI  -7
BAUDETTE       LGT SNOW  22  18  85 W15G25    29.56R FOG     WCI   9
WASKISH        LGT SNOW  21  18  86 W24G32    29.62R WCI   4
CROOKSTON      LGT SNOW  16  12  86 NW29G36   29.82R VSB 3/4 WCI  -4
$$
  *****  WEATHER ACROSS CENTRAL AND WEST MINNESOTA  *****

CITY           SKY/WX    TMP DP  RH WIND       PRES   REMARKS
BEMIDJI        LGT SNOW  15  11  85 W20G28    29.70R WCI  -3
PARK RAPIDS    LGT SNOW  14   7  73 W18       29.76R WCI  -3
WADENA         LGT SNOW  10   7  85 W15G21    29.82R WCI  -6
DETROIT LAKES  LGT SNOW  12  10  92 W22G28    29.83R WCI  -7
MOORHEAD       MIX PCPN  10   7  85 W24G30    29.92R WCI -10
FERGUS FALLS   CLOUDY    10   7  85 W23       29.98R WCI -10
ELBOW LAKE     FLURRIES  10   7  85 NW22G30   29.95R WCI  -9
MORRIS MN      FLURRIES  12   9  85 W26G35    29.96R WCI  -8
STAPLES        FLURRIES  10   9  92 W17G23    29.82R WCI  -7
WHEATON        FLURRIES  14  10  85 W16G26    30.02R WCI  -2
$$
  *****  WEATHER ELSEWHERE ACROSS MINNESOTA  *****

CITY           SKY/WX    TMP DP  RH WIND       PRES   REMARKS
DULUTH         FLURRIES  16  11  80 W24G31    29.63R WCI  -2
INTRNTL FALLS  HVY SNOW  23  20  88 W10       29.53R VSB 1/4 WCI  12
ELY            LGT SNOW  19  18  93 W12       29.53R WCI   7
CLOQUET        FLURRIES  16  10  79 SW13G22   29.68R WCI   2
BRAINERD       FLURRIES  13   8  81 W14       29.79R WCI  -2
HIBBING        LGT SNOW  17  13  84 W10G20    29.61R FOG     WCI   5
ALEXANDRIA     LGT SNOW  11   7  84 W22G35    29.90R FOG     WCI  -8
SAINT CLOUD    FLURRIES  14   8  77 W22G28    29.90R WCI  -4
MINNEAPOLIS    FLURRIES  17   8  67 W18G28    29.95R WCI   1
$$

  *****  WEATHER ACROSS SOUTH DAKOTA  *****

CITY           SKY/WX    TMP DP  RH WIND       PRES   REMARKS
SIOUX FALLS    CLEAR      9   3  77 W21G29    30.14R WCI -11
BROOKINGS      CLEAR      6   1  80 W22G30    30.06R WCI -15
WATERTOWN      CLOUDY     6   1  80 W22G32    30.03R WCI -15
HURON          CLEAR      8   2  76 NW16      30.17R WCI -10
SISSETON         N/A     12   4  70 NW28G35   30.00R WCI  -9
ABERDEEN       CLEAR      8   0  69 W23G29    30.12R WCI -13
MITCHELL       CLEAR     10   2  69 W23       30.20R WCI -10
PIERRE         MOCLDY     8   2  76 NW29G36   30.20R WCI -15
MOBRIDGE       CLOUDY     7  -2  66 NW29G40   30.13R WCI -16
RAPID CITY     CLOUDY     4  -4  69 N18       30.19R WCI -16
$$

  *****  SOME WEATHER IN NEARBY STATES *****

CITY           SKY/WX    TMP DP  RH WIND       PRES   REMARKS
GLASGOW MT     MOCLDY     0  -8  69 NW26      30.37R WCI -25
GREAT FALLS MT CLOUDY    -3  -8  79 SW6       30.38R WCI -15
CHEYENNE WY    LGT SNOW   3  -2  79 N8        29.95R WCI -10
SCOTTSBLUFF NE LGT SNOW  10   5  80 N10       30.13R WCI  -4
OMAHA NE       MOCLDY    17   8  67 NW12      30.22R WCI   4
DES MOINES IA  MOCLDY    20  10  65 NW10      30.16R WCI   9
DAVENPORT IA   CLOUDY    23  15  71 W17       30.09F WCI   9
CHICAGO IL     MOCLDY    25  17  72 W18       30.03R WCI  11
EAU CLAIRE WI  FLURRIES  17  10  74 SW14G31   29.89R WCI   3
LA CROSSE WI   CLOUDY    19  10  68 W9        30.00R WCI   8
$$

  *****  SOME NATIONAL WEATHER *****

CITY           SKY/WX    TMP DP  RH WIND       PRES   REMARKS
LA GUARDIA NY  CLOUDY    42  38  85 NE9       29.93R
RALEIGH NC     PTCLDY    38  37  97 SW3       29.99R
ATLANTA GA     PTCLDY    46  42  86 NW9       29.99R
NEW ORLEANS LA CLOUDY    55  55 100 NE3       30.05R
OKLAHOMA CITY  PTCLDY    31  20  63 NE9       30.06F WCI  23
ALBUQUERQUE NM CLEAR     33  20  58 SE7       29.90S
SALT LAKE CITY CLOUDY    24  15  68 NW10      30.09R WCI  14
LOS ANGELES CA MOCLDY    53  47  79 CALM      30.03S
BOISE ID       PTCLDY    13  10  88 SE3       30.24R
SEATTLE WA     PTCLDY    30  25  81 NE7       30.40R WCI  23
$$

*** WEATHER ACROSS MANITOBA...SASKATCHEWAN AND ONTARIO ***
                ***ONTARIO***

CITY           SKY/WX    TMP DP  RH WIND       PRES   REMARKS
GERALDTON      FLURRIES  23  21  93 SW5       29.46S WCI  17
THUNDER BAY    FLURRIES  23  21  93 W6        29.53R WCI  16
SIOUX LOOKOUT  FLURRIES  21  19  93 W5        29.47R WCI  15
TORONTO        MOCLDY    36  27  69 W17G25    29.85R
BIG TROUT LK   LGT SNOW  18  16  93 NE8G18    29.71S WCI   7
PICKLE LAKE    LGT SNOW  21  19  93 NE13G18   29.46  VSB 1   WCI   9
DRYDEN         FLURRIES  19  19 100 SW6       29.48R WCI  11
KENORA         LGT SNOW  23  21  93 N7        29.53R WCI  15
$$
                *** MANITOBA***

CITY           SKY/WX    TMP DP  RH WIND       PRES   REMARKS
BRANDON        LGT SNOW  10   5  79 NW30G39   29.94R BLWGSNOWWCI -12
DAUPHIN        LGT SNOW  16  14  93 NW16      29.98R WCI   0
ISLAND LAKE    NOT AVBL
PILOT MOUND      N/A     10   9  92 NW26G37     N/A  WCI -11
THE PAS        CLOUDY    18  12  79 N15G25    30.14R WCI   3
THOMPSON       FLURRIES  10   7  85 N14       30.11R WCI  -5
WINNIPEG       LGT SNOW  23  19  86 NW26G33   29.72R BLWGSNOWWCI   6
LYNN LAKE      CLOUDY     3   1  92 N10G18    30.25R WCI -12
CHURCHILL      LGT SNOW  19  18  93 N32G39    30.18R VSB 3/4 WCI   0
GILLAM         FRZ DRZL  21  19  93 N13       30.01S WCI   9
$$
                ***SASKATCHEWAN***

CITY           SKY/WX    TMP DP  RH WIND       PRES   REMARKS
ESTEVAN        LGT SNOW   0  -4  85 NW26G35   30.18R BLWGSNOWWCI -25
KINDERSLEY     PTCLDY    -6 -11  77 NW14G25   30.38R WCI -26
LLOYDMINSTER   FLURRIES  -6 -11  77 NW10      30.41R WCI -23
PRINCE ALBERT  LGT SNOW   5   0  78 NW12      30.30R WCI -11
REGINA         CLOUDY     0  -6  78 NW18G24   30.27R WCI -22
YORKTON        FLURRIES   7   3  85 NW22G28   30.12R WCC1F1C2F2C3F3C4F4C5F5C6F6C7F7C8F8C9F9CaFaCbFbCcFcCdFdCe!


USA.gov is the U.S. government's official web portal to all federal, state and local government web resources and services.